TimeEDT,TemperatureF,Dew PointF,Humidity,Sea Level PressureIn,VisibilityMPH,Wind Direction,Wind SpeedMPH,Gust SpeedMPH,PrecipitationIn,Events,Conditions,WindDirDegrees,DateUTC
12:53 AM,75.0,66.0,73,30.11,10.0,ENE,18.4,-,N/A,,Clear,70,2011-10-05 04:53:00
1:53 AM,75.0,66.9,76,30.10,10.0,ENE,16.1,-,N/A,,Clear,70,2011-10-05 05:53:00
3:53 AM,73.9,66.0,76,30.08,10.0,East,15.0,-,N/A,,Clear,80,2011-10-05 07:53:00
4:53 AM,73.9,66.0,76,30.08,10.0,East,13.8,-,N/A,,Clear,80,2011-10-05 08:53:00
5:53 AM,73.9,66.0,76,30.08,10.0,ENE,16.1,-,N/A,,Clear,70,2011-10-05 09:53:00
6:53 AM,73.0,66.0,79,30.09,10.0,ENE,13.8,-,N/A,,Clear,70,2011-10-05 10:53:00
7:53 AM,72.0,64.9,78,30.10,10.0,ENE,11.5,-,N/A,,Clear,60,2011-10-05 11:53:00
8:53 AM,73.0,64.9,76,30.11,10.0,NE,10.4,-,N/A,,Clear,50,2011-10-05 12:53:00
9:53 AM,75.0,66.0,73,30.12,10.0,NE,13.8,-,N/A,,Clear,50,2011-10-05 13:53:00
11:53 AM,79.0,66.0,64,30.11,10.0,East,12.7,-,N/A,,Clear,80,2011-10-05 15:53:00
12:53 PM,80.1,66.0,62,30.09,10.0,East,11.5,-,N/A,,Clear,80,2011-10-05 16:53:00
1:53 PM,81.0,68.0,65,30.07,10.0,East,11.5,-,N/A,,Clear,90,2011-10-05 17:53:00
2:53 PM,82.0,69.1,65,30.05,10.0,ENE,10.4,-,N/A,,Clear,70,2011-10-05 18:53:00
3:53 PM,82.9,69.1,63,30.03,10.0,East,8.1,-,N/A,,Clear,80,2011-10-05 19:53:00
4:53 PM,82.0,68.0,62,30.03,10.0,East,12.7,-,N/A,,Clear,80,2011-10-05 20:53:00
5:53 PM,81.0,66.9,62,30.03,10.0,ENE,16.1,-,N/A,,Mostly Cloudy,70,2011-10-05 21:53:00
6:53 PM,80.1,66.9,64,30.03,10.0,East,11.5,-,N/A,,Partly Cloudy,80,2011-10-05 22:53:00
7:53 PM,80.1,66.9,64,30.04,10.0,East,13.8,-,N/A,,Mostly Cloudy,90,2011-10-05 23:53:00
8:53 PM,79.0,66.9,66,30.06,10.0,East,11.5,-,N/A,,Clear,100,2011-10-06 00:53:00
9:53 PM,78.1,66.9,68,30.07,10.0,ENE,15.0,-,N/A,,Clear,60,2011-10-06 01:53:00
10:53 PM,75.0,68.0,79,30.09,10.0,ENE,20.7,-,N/A,,Clear,70,2011-10-06 02:53:00
11:53 PM,75.0,68.0,79,30.08,10.0,ENE,19.6,-,N/A,,Clear,70,2011-10-06 03:53:00